Change the Weather History Date:

Tuesday, February 7, 2012

  Actual Average Record
Temperature  
Mean Temperature 59 °F 63 °F  
Max Temperature 64 °F 74 °F 88 °F (1948)
Min Temperature 54 °F 53 °F 30 °F (1926)
Degree Days  
Heating Degree Days 6 5  
Month to date heating degree days 30 35  
Since 1 July heating degree days 310 462  
Cooling Degree Days 0 3  
Month to date cooling degree days 38 19  
Year to date cooling degree days 150 81  
Growing Degree Days 8 (Base 50)    
Moisture  
Dew Point 53 °F    
Average Humidity 80    
Maximum Humidity 97    
Minimum Humidity 63    
Precipitation  
Precipitation 0.64 in 0.04 in 0.64 in (2012)
Month to date precipitation 1.27 0.31  
Year to date precipitation 1.48 1.36  
Sea Level Pressure  
Sea Level Pressure 30.19 in    
Wind  
Wind Speed 6 mph (North)    
Max Wind Speed 15 mph    
Max Gust Speed 18 mph    
Visibility 7 miles    
Events Rain , Thunderstorm    
T = Trace of Precipitation, MM = Missing Value Source: NWS Daily Summary

Daily Weather History Graph

Daily Weather History Graph

Search for Another Location

Airport or City:

Trip Planner

Search our weather history database for the weather conditions in past years. The results will help you decide how hot, cold, wet, or windy it might be!

Date:

Astronomy

Feb. 07, 2012 Rise Set
Actual Time 7:14 AM CST 6:20 PM CST
Civil Twilight 6:50 AM CST 6:44 PM CST
Nautical Twilight 6:22 AM CST 7:11 PM CST
Astronomical Twilight 5:55 AM CST 7:38 PM CST
Moon 6:26 PM CST (2/7) 6:47 AM CST (2/7)
Length of Visible Light 11h 53m
Length of Day
11h 05m
Full, 100% of the Moon is Illuminated
Feb 7
Full
Feb 7
Full
Feb 14
Last Quarter
Feb 21
New
Feb 29
First Quarter

Hourly Weather History & Observations

Time (CST) Temp. Dew Point Humidity Pressure Visibility Wind Dir Wind Speed Gust Speed Precip Events Conditions
12:21 AM 53.6 °F 46.4 °F 77% 30.20 in 10.0 mi Calm Calm - N/A   Overcast
12:53 AM 55.0 °F 45.0 °F 69% 30.19 in 10.0 mi NNW 3.5 mph - N/A   Overcast
1:53 AM 55.0 °F 44.1 °F 67% 30.18 in 10.0 mi Calm Calm - N/A   Overcast
2:53 AM 55.0 °F 45.0 °F 69% 30.15 in 10.0 mi NNE 3.5 mph - N/A   Overcast
3:53 AM 55.0 °F 45.0 °F 69% 30.16 in 10.0 mi NNE 3.5 mph - N/A   Overcast
4:33 AM 55.4 °F 44.6 °F 67% 30.14 in 10.0 mi NNE 4.6 mph - N/A   Overcast
4:53 AM 55.0 °F 45.0 °F 69% 30.13 in 10.0 mi NNE 5.8 mph - N/A   Overcast
5:53 AM 55.0 °F 46.0 °F 72% 30.15 in 10.0 mi NNE 4.6 mph - N/A   Overcast
6:16 AM 55.4 °F 46.4 °F 72% 30.16 in 10.0 mi North 5.8 mph - N/A   Overcast
6:53 AM 55.0 °F 45.0 °F 69% 30.16 in 10.0 mi North 4.6 mph - N/A   Overcast
7:53 AM 55.0 °F 46.0 °F 72% 30.18 in 10.0 mi NNW 5.8 mph - N/A   Overcast
8:53 AM 55.9 °F 46.0 °F 69% 30.19 in 10.0 mi North 6.9 mph - N/A   Overcast
9:53 AM 55.9 °F 46.9 °F 72% 30.22 in 10.0 mi NNW 5.8 mph - N/A   Overcast
10:53 AM 57.9 °F 48.0 °F 70% 30.21 in 10.0 mi NNW 6.9 mph - N/A   Overcast
11:53 AM 60.1 °F 48.0 °F 64% 30.18 in 10.0 mi NNW 5.8 mph - N/A   Overcast
12:53 PM 62.1 °F 50.0 °F 65% 30.16 in 10.0 mi NNW 5.8 mph - N/A   Overcast
1:53 PM 64.0 °F 52.0 °F 65% 30.13 in 10.0 mi North 8.1 mph - N/A   Overcast
2:53 PM 63.0 °F 53.1 °F 70% 30.13 in 10.0 mi North 6.9 mph - N/A   Overcast
3:53 PM 63.0 °F 54.0 °F 72% 30.13 in 10.0 mi North 5.8 mph - N/A   Overcast
4:53 PM 62.1 °F 55.9 °F 80% 30.14 in 7.0 mi NNE 5.8 mph - N/A   Overcast
5:41 PM 62.6 °F 57.2 °F 82% 30.15 in 9.0 mi NNW 5.8 mph - N/A   Overcast
5:53 PM 62.1 °F 57.0 °F 84% 30.15 in 9.0 mi North 6.9 mph - N/A   Overcast
6:28 PM 62.6 °F 57.2 °F 82% 30.15 in 9.0 mi North 5.8 mph - N/A   Overcast
6:53 PM 62.1 °F 57.0 °F 84% 30.16 in 7.0 mi North 6.9 mph - N/A   Overcast
7:03 PM 62.6 °F 57.2 °F 82% 30.16 in 5.0 mi North 5.8 mph - N/A   Overcast
7:33 PM 60.8 °F 59.0 °F 94% 30.18 in 2.5 mi NNE 5.8 mph - 0.00 in Rain Light Rain
7:53 PM 61.0 °F 59.0 °F 93% 30.19 in 2.5 mi NNE 6.9 mph - 0.00 in Rain Light Rain
8:04 PM 60.8 °F 59.0 °F 94% 30.19 in 3.0 mi NNE 4.6 mph - 0.00 in Rain Light Rain
8:17 PM 60.8 °F 59.0 °F 94% 30.20 in 2.5 mi NNE 6.9 mph - 0.00 in   Overcast
8:53 PM 61.0 °F 59.0 °F 93% 30.21 in 2.5 mi NNE 10.4 mph - 0.02 in Rain Light Rain
9:22 PM 60.8 °F 57.2 °F 88% 30.21 in 3.0 mi NNE 9.2 mph - 0.01 in Rain Light Rain
9:53 PM 59.0 °F 57.0 °F 93% 30.23 in 3.0 mi NNE 11.5 mph - 0.02 in Rain Light Rain
10:31 PM 59.0 °F 57.2 °F 94% 30.24 in 2.5 mi NNE 8.1 mph - 0.03 in Rain Rain
10:43 PM 59.0 °F 57.2 °F 94% 30.24 in 4.0 mi NNE 8.1 mph - 0.04 in Rain Light Rain
10:51 PM 59.0 °F 57.2 °F 94% 30.25 in 4.0 mi NNE 8.1 mph - 0.05 in Rain , Thunderstorm Rain
10:53 PM 59.0 °F 57.0 °F 93% 30.25 in 4.0 mi NNE 6.9 mph - 0.06 in Rain , Thunderstorm Rain
10:58 PM 59.0 °F 57.2 °F 94% 30.25 in 3.0 mi NNE 4.6 mph - 0.02 in Rain , Thunderstorm Heavy Thunderstorms and Rain
11:13 PM 57.2 °F 55.4 °F 94% 30.25 in 2.5 mi NE 8.1 mph - 0.13 in Rain , Thunderstorm Heavy Rain
11:24 PM 57.2 °F 55.4 °F 94% 30.25 in 3.0 mi NE 9.2 mph - 0.19 in Rain , Thunderstorm Heavy Thunderstorms and Rain
11:37 PM 57.2 °F 55.4 °F 94% 30.25 in 2.0 mi NNE 11.5 mph - N/A Rain , Thunderstorm Heavy Rain
11:45 PM 57.2 °F 55.4 °F 94% 30.25 in 2.5 mi NNE 12.7 mph - 0.41 in Rain Heavy Rain
11:53 PM 57.9 °F 55.9 °F 93% 30.25 in 2.5 mi NNE 9.2 mph - 0.50 in Rain Heavy Rain